Meteo pe oră la Bolshie Savrushi

Astăzi, 18 Mai, Marţi

Timp Temperatura Precipitaţii Vânt Presiune Umiditate
00:00 +19°C° 0.3 mm 2 m/s 751 mmHg 82%
01:00 +18°C° 0 mm 2 m/s 751 mmHg 84%
02:00 +18°C° 0 mm 2 m/s 751 mmHg 85%
03:00 +17°C° 0 mm 3 m/s 751 mmHg 87%
04:00 +18°C° 0.2 mm 3 m/s 752 mmHg 84%
05:00 +19°C° 0.2 mm 3 m/s 752 mmHg 81%
06:00 +19°C° 0.2 mm 3 m/s 752 mmHg 78%
07:00 +21°C° 0 mm 3 m/s 752 mmHg 70%
08:00 +24°C° 0 mm 3 m/s 752 mmHg 63%
09:00 +25°C° 0 mm 3 m/s 752 mmHg 55%
10:00 +26°C° 0 mm 3 m/s 752 mmHg 52%
11:00 +27°C° 0 mm 3 m/s 752 mmHg 48%
12:00 +28°C° 0 mm 3 m/s 752 mmHg 44%
13:00 +28°C° 0 mm 3 m/s 752 mmHg 43%
14:00 +28°C° 0 mm 3 m/s 752 mmHg 41%
15:00 +28°C° 0 mm 3 m/s 752 mmHg 40%
16:00 +27°C° 0 mm 3 m/s 752 mmHg 46%
17:00 +26°C° 0 mm 3 m/s 752 mmHg 52%
18:00 +25°C° 0 mm 3 m/s 752 mmHg 58%
19:00 +22°C° 0 mm 3 m/s 752 mmHg 60%
20:00 +20°C° 0 mm 3 m/s 752 mmHg 63%
21:00 +19°C° 0 mm 3 m/s 752 mmHg 65%
22:00 +18°C° 0 mm 3 m/s 752 mmHg 67%
23:00 +17°C° 0 mm 3 m/s 752 mmHg 68%

Mâine, 19 Mai, Miercuri

Timp Temperatura Precipitaţii Vânt Presiune Umiditate
00:00 +17°C° 0 mm 3 m/s 752 mmHg 70%
01:00 +15°C° 0 mm 4 m/s 752 mmHg 72%
02:00 +15°C° 0 mm 4 m/s 752 mmHg 75%
03:00 +14°C° 0 mm 4 m/s 753 mmHg 77%
04:00 +15°C° 0 mm 4 m/s 753 mmHg 77%
05:00 +17°C° 0 mm 4 m/s 753 mmHg 76%
06:00 +16°C° 0 mm 5 m/s 753 mmHg 75%
07:00 +19°C° 0 mm 5 m/s 753 mmHg 69%
08:00 +20°C° 0 mm 6 m/s 753 mmHg 64%
09:00 +21°C° 0 mm 6 m/s 753 mmHg 58%
10:00 +22°C° 0 mm 6 m/s 753 mmHg 54%
11:00 +23°C° 0 mm 6 m/s 753 mmHg 49%
12:00 +24°C° 0 mm 6 m/s 753 mmHg 45%
13:00 +26°C° 0 mm 6 m/s 753 mmHg 45%
14:00 +26°C° 0 mm 6 m/s 753 mmHg 44%
15:00 +26°C° 0 mm 6 m/s 753 mmHg 44%
16:00 +25°C° 0 mm 5 m/s 752 mmHg 49%
17:00 +25°C° 0 mm 5 m/s 752 mmHg 54%
18:00 +23°C° 0 mm 4 m/s 752 mmHg 59%
19:00 +22°C° 0 mm 4 m/s 752 mmHg 61%
20:00 +20°C° 0 mm 4 m/s 753 mmHg 63%
21:00 +19°C° 0 mm 5 m/s 753 mmHg 65%
22:00 +18°C° 0 mm 4 m/s 753 mmHg 67%
23:00 +17°C° 0 mm 4 m/s 753 mmHg 68%

Poimâine, 20 Mai, Joi

Timp Temperatura Precipitaţii Vânt Presiune Umiditate
00:00 +16°C° 0 mm 3 m/s 753 mmHg 70%
01:00 +16°C° 0 mm 3 m/s 753 mmHg 71%
02:00 +16°C° 0 mm 3 m/s 753 mmHg 72%
03:00 +14°C° 0 mm 3 m/s 753 mmHg 72%
04:00 +16°C° 0 mm 3 m/s 753 mmHg 70%
05:00 +17°C° 0 mm 4 m/s 753 mmHg 68%
06:00 +18°C° 0 mm 4 m/s 753 mmHg 65%
07:00 +20°C° 0 mm 4 m/s 753 mmHg 59%
08:00 +21°C° 0 mm 5 m/s 753 mmHg 53%
09:00 +23°C° 0 mm 6 m/s 753 mmHg 46%
10:00 +23°C° 0 mm 6 m/s 753 mmHg 43%
11:00 +24°C° 0 mm 6 m/s 753 mmHg 40%
12:00 +26°C° 0 mm 6 m/s 753 mmHg 37%
13:00 +26°C° 0 mm 6 m/s 752 mmHg 37%
14:00 +26°C° 0 mm 6 m/s 752 mmHg 38%
15:00 +26°C° 0 mm 6 m/s 752 mmHg 38%
16:00 +25°C° 0 mm 5 m/s 752 mmHg 43%
17:00 +23°C° 0 mm 4 m/s 752 mmHg 49%
18:00 +22°C° 0 mm 4 m/s 751 mmHg 54%
19:00 +20°C° 0 mm 3 m/s 751 mmHg 57%
20:00 +19°C° 0 mm 3 m/s 751 mmHg 61%
21:00 +17°C° 0 mm 3 m/s 751 mmHg 64%
22:00 +17°C° 0 mm 3 m/s 751 mmHg 65%
23:00 +16°C° 0 mm 3 m/s 751 mmHg 67%

21 Mai, Vineri

Timp Temperatura Precipitaţii Vânt Presiune Umiditate
00:00 +16°C° 0 mm 3 m/s 751 mmHg 68%
01:00 +14°C° 0 mm 3 m/s 751 mmHg 68%
02:00 +14°C° 0 mm 3 m/s 751 mmHg 68%
03:00 +13°C° 0 mm 3 m/s 751 mmHg 68%
04:00 +14°C° 0 mm 4 m/s 751 mmHg 67%
05:00 +15°C° 0 mm 4 m/s 750 mmHg 66%
06:00 +17°C° 0 mm 4 m/s 750 mmHg 65%
07:00 +18°C° 0 mm 4 m/s 750 mmHg 61%
08:00 +19°C° 0 mm 5 m/s 751 mmHg 58%
09:00 +21°C° 0 mm 5 m/s 751 mmHg 54%
10:00 +22°C° 0 mm 5 m/s 751 mmHg 53%
11:00 +23°C° 0 mm 5 m/s 751 mmHg 52%
12:00 +25°C° 0 mm 5 m/s 751 mmHg 51%
13:00 +23°C° 0.1 mm 5 m/s 751 mmHg 53%
14:00 +23°C° 0.1 mm 5 m/s 751 mmHg 54%
15:00 +23°C° 0.1 mm 5 m/s 751 mmHg 56%
16:00 +22°C° 0 mm 4 m/s 751 mmHg 59%
17:00 +21°C° 0 mm 4 m/s 751 mmHg 61%
18:00 +21°C° 0 mm 3 m/s 751 mmHg 64%
19:00 +19°C° 0 mm 3 m/s 751 mmHg 67%
20:00 +18°C° 0 mm 3 m/s 751 mmHg 71%
21:00 +17°C° 0 mm 3 m/s 751 mmHg 74%
22:00 +15°C° 0.1 mm 4 m/s 751 mmHg 78%
23:00 +15°C° 0.1 mm 4 m/s 752 mmHg 82%

22 Mai, Sâmbătă

Timp Temperatura Precipitaţii Vânt Presiune Umiditate
00:00 +14°C° 0.1 mm 4 m/s 752 mmHg 85%
01:00 +14°C° 0 mm 4 m/s 752 mmHg 87%
02:00 +13°C° 0 mm 4 m/s 753 mmHg 89%
03:00 +13°C° 0 mm 4 m/s 753 mmHg 90%
04:00 +13°C° 0 mm 4 m/s 753 mmHg 86%
05:00 +13°C° 0 mm 4 m/s 754 mmHg 81%
06:00 +13°C° 0 mm 4 m/s 754 mmHg 77%
07:00 +14°C° 0 mm 4 m/s 754 mmHg 71%
08:00 +15°C° 0 mm 4 m/s 755 mmHg 66%
09:00 +16°C° 0 mm 5 m/s 755 mmHg 61%
10:00 +17°C° 0 mm 5 m/s 755 mmHg 59%
11:00 +17°C° 0 mm 5 m/s 755 mmHg 58%
12:00 +19°C° 0 mm 6 m/s 756 mmHg 56%
13:00 +17°C° 0.1 mm 5 m/s 756 mmHg 63%
14:00 +16°C° 0.1 mm 3 m/s 756 mmHg 69%
15:00 +15°C° 0.1 mm 2 m/s 756 mmHg 76%
16:00 +15°C° 0 mm 2 m/s 756 mmHg 75%
17:00 +15°C° 0 mm 2 m/s 756 mmHg 75%
18:00 +15°C° 0 mm 1 m/s 756 mmHg 74%
19:00 +14°C° 0 mm 1 m/s 756 mmHg 76%
20:00 +14°C° 0 mm 1 m/s 756 mmHg 78%
21:00 +14°C° 0 mm 1 m/s 755 mmHg 80%
22:00 +13°C° 0 mm 2 m/s 755 mmHg 81%
23:00 +13°C° 0 mm 2 m/s 755 mmHg 83%

23 Mai, Duminică

Timp Temperatura Precipitaţii Vânt Presiune Umiditate
00:00 +13°C° 0 mm 2 m/s 755 mmHg 85%
01:00 +12°C° 0 mm 3 m/s 755 mmHg 87%
02:00 +12°C° 0 mm 3 m/s 755 mmHg 89%
03:00 +12°C° 0 mm 4 m/s 755 mmHg 91%
04:00 +12°C° 0 mm 4 m/s 755 mmHg 89%
05:00 +13°C° 0 mm 4 m/s 755 mmHg 88%
06:00 +14°C° 0 mm 5 m/s 755 mmHg 86%
07:00 +15°C° 0 mm 5 m/s 755 mmHg 81%
08:00 +17°C° 0 mm 4 m/s 755 mmHg 76%
09:00 +19°C° 0 mm 4 m/s 755 mmHg 71%
10:00 +20°C° 0 mm 4 m/s 754 mmHg 68%
11:00 +21°C° 0 mm 3 m/s 754 mmHg 64%
12:00 +24°C° 0 mm 3 m/s 754 mmHg 60%
13:00 +24°C° 0 mm 3 m/s 754 mmHg 58%
14:00 +25°C° 0 mm 3 m/s 753 mmHg 57%
15:00 +26°C° 0 mm 3 m/s 753 mmHg 56%
16:00 +25°C° 0 mm 3 m/s 753 mmHg 60%
17:00 +23°C° 0 mm 4 m/s 752 mmHg 65%
18:00 +23°C° 0 mm 4 m/s 752 mmHg 70%
19:00 +22°C° 0 mm 4 m/s 752 mmHg 72%
20:00 +21°C° 0 mm 5 m/s 751 mmHg 74%
21:00 +20°C° 0 mm 5 m/s 751 mmHg 77%
22:00 +20°C° 0 mm 4 m/s 751 mmHg 77%
23:00 +20°C° 0 mm 4 m/s 750 mmHg 77%
Arată mai mult

Formular de consimțământ

Meteoprog și furnizorii noștri de servicii pot stoca și accesa date personale, precum cookies, identificatori de dispozitiv sau alte tehnologii similare pe dispozitivul dumneavoastră și procesa astfel de date pentru a personaliza conținutul și reclamele, dar și pentru a oferi caracteristici de social media și pentru a analiza traficul.

  • Stocarea și/sau accesarea informațiilor pe dispozitivul dumneavoastră

    Cookies, identificatori de dispozitiv sau alte informații pot fi stocate sau accesate pe dispozitiv în scopurile indicate mai sus.

  • Reclame și conținut personalizat, evaluarea reclamelor și a conținutului, informații despre audiențe și dezvoltarea produselor

    Reclamele și conținutul pot fi personalizate pe baza unui profil. Pot fi adăugate date suplimentare pentru a personaliza mai bine reclamele și conținutul. Performanța reclamelor și conținutului poate fi măsurată. Pot fi obținute informații despre utilizatorii care au văzut reclamele și conținutul. Aceste date pot fi utilizate pentru a dezvolta sau îmbunătăți experiența utilizatorilor, sistemele și software-ul.

Dând clic pe ‘Sunt de acord’, permiteți utilizarea cookie-urilor menționate, a identificatorilor de dispozitiv, balizelor web sau altor tehnologii similare. Setările pot fi modificate din browser-ul dispozitivului dumneavoastră.

În anumite scopuri, interesele legitime pot prima asupra consimțământului. Puteți citi mai multe informații în acest sens în Politica privind Confidențialitatea Datelor și Cookie.